Location: Bretagne
(43.8474°N, 0.4650°W)
Time: 09:02:58
(UTC+00:00)

ERS-1 - Pass Details

Date: 15 January 2026
Orbit: 738 x 782 km, 98.8° (Epoch: 18 February)

Event Time Altitude Azimuth Distance (km) Brightness Sun altitude
Rises 17:35:35 0° 156° (SSE) 3,161 7.7 -8.3°
Reaches altitude 10° 17:37:51 10° 154° (SSE) 2,245 6.9 -8.7°
Maximum altitude 17:42:44 66° 73° (ENE) 813 4.4 -9.5°
Drops below altitude 10° 17:47:42 10° 351° (N) 2,282 6.9 -10.3°
Sets 17:50:02 0° 349° (N) 3,217 7.6 -10.7°
